Tracking 19794 objects as of 21-Jul-2019
HD Live streaming from Space Station
objects crossing your sky now

FENGYUN 1C DEB

Track FENGYUN 1C DEB now!
10-day predictions


NORAD ID: 32201
Int'l Code: 1999-025CUX
Perigee: 778.7 km
Apogee: 988.4 km
Inclination: 99.2 °
Period: 102.5 minutes
Semi major axis: 7254 km
RCS: 0.0094 m2 (small)
Launch date: May 10, 1999
Source: People's Republic of China (PRC)
Launch site: Taiyaun Space Center, China (TSC)

Note: This is SATELLITE DEBRIS
aabbcc
Your satellite tracking list
Your tracking list is empty




NASA's NSSDC Master Catalog

Two Line Element Set (TLE):
1 32201U 99025CUX 19192.27456825  .00000557  00000-0  34153-3 0  9990
2 32201  99.1681 220.4469 0144534 246.6230 111.9678 14.05041859631218
Source of the keplerian elements: AFSPC